Regional Weather Roundup
Issued by NWS Pendleton, OR

Home | Current Version | Previous Version | Text Only | Print | Product List | Glossary On
Versions: 1 2 3 4 5 6 7 8 9 10 11 12 13 14 15 16 17 18 19 20 21 22 23 24 25 26 27 28 29 30 31 32 33 34 35 36 37 38 39 40 41 42 43 44 45 46 47 48 49 50
000
ASUS46 KPDT 281825
RWRPDT
PENDLETON REGIONAL WEATHER ROUNDUP
NATIONAL WEATHER SERVICE PENDLETON OREGON
1000 AM PST FRI NOV 28 2014

NOTE: FAIR INDICATES FEW OR NO CLOUDS BELOW 12,000 FEET WITH NO
SIGNIFICANT WEATHER AND/OR OBSTRUCTIONS TO VISIBILITY.

# INDICATES UNOFFICIAL STATION AND DATA

WAZ520-281910-
EAST SLOPES OF WASHINGTON CASCADES

CITY            SKY/WX      TMP DP  RH  WIND    PRES   REMARKS
#BULLFROG 2SW   N/A         43  43  100 CALM    27.09F
#BUMPING DAM    N/A         43  N/A N/A SW5     N/A
#CLE ELUM HS    N/A         45  40  82  CALM    29.46F
#CLE ELUM 2NW   N/A         43  41  93  E1      N/A
#CLE ELUM LAKE  N/A         49  42  77  NW2     29.40F
#CLIFFDEL 2NW   N/A         48  41  77  W2      N/A
#GLENWOOD       N/A         49  48  96  S3      29.55F
#MANASTASH CYN  N/A         40  37  89  CALM    29.47F
#NELSON         N/A         37  36  96  CALM    29.52F
#NELSON 3SW     N/A         42  41  96  CALM    29.69F
#NILE           N/A         40  40  100 W1      28.75F
#RONALD 2NW     N/A         48  43  83  S1      29.37F
#TEANAWAY 4NE   N/A         44  44  100 CALM    N/A
#TROUT LAKE HS  N/A         52  49  89  CALM    N/A
#TROUT LAKE 1NE N/A         50  47  89  W2      29.54F
$$

WAZ521-281910-
SIMCOE HIGHLANDS

CITY            SKY/WX      TMP DP  RH  WIND    PRES   REMARKS
#BICKLETON HS   N/A         46  41  83  W22G29  29.67F WCI 38
#CENTERVILLE 4W N/A         51  46  83  W6      29.37F
#CENTERVILLE 1SWN/A         50  44  80  SW15    29.54F
#GOLDENDALE     N/A         50  49  96  SW5     N/A
#GOLDENDALE 1NE N/A         50  50  100 CALM    N/A
#GOLDENDALE 1S  N/A         49  46  89  SW5     29.58F
#GOLDENDALE 5WNWN/A         50  47  89  S1      29.57F
#GOODNOE HILLS  N/A         52  47  83  W10     N/A
#LYLE 6NE       N/A         49  48  96  CALM    29.54F
$$

WAZ026-281910-
KITTITAS VALLEY

CITY            SKY/WX      TMP DP  RH  WIND    PRES   REMARKS
ELLENSBURG AP   CLOUDY      43  39  86  N6      29.48F
6HR MIN TEMP:   33; 6HR MAX TEMP:   43;

#ELLENSBURG CWU N/A         38  37  96  N2      29.46F
#ELLENSBURG 3NE N/A         45  44  96  NE5     29.50F
#ELLENSBURG     N/A         40  40  100 S2      N/A
#ELLENSBURG 1E  N/A         35  33  92  CALM    N/A
#KITTITAS 4N    N/A         47  42  83  CALM    29.54F
#KITTITAS 3S    N/A         32  31  96  CALM    29.52F
#THORP 6N       N/A         46  43  89  E8      29.48F
$$

WAZ027-281910-
YAKIMA VALLEY

CITY            SKY/WX      TMP DP  RH  WIND    PRES   REMARKS
SUNNYSIDE AP    PTCLDY      57  45  64  S14     29.55F
YAKIMA AIRPORT  MOCLDY      58  44  60  S20G31  29.47F
6HR MIN TEMP:   53; 6HR MAX TEMP:   58;

YAKIMA-VAGABOND PTCLDY      55  44  66  S21G26  29.49F
#DONALD 2NE     N/A         58  43  57  E1      28.38S
#GRANDVIEW      N/A         58  42  55  SW3     29.56F
#MABTON         N/A         59  46  62  S21G35  29.53F
#MOXEE 2E       N/A         56  35  45  S16     29.45F
#NACHES 2SW     N/A         53  46  77  CALM    29.50R
#OUTLOOK DOT    N/A         N/A N/A N/A S7      N/A
#SELAH 8E       N/A         52  43  71  S18G30  N/A
#TERRACE HTS    N/A         55  46  72  S7      29.46F
#TOPPENISH      N/A         57  46  67  CALM    29.42F
#WAPATO 4NE     N/A         58  43  57  E1      28.38S
#WEST VALLEY    N/A         56  46  69  S9      29.44F
#W YAKIMA       N/A         56  46  69  S5      29.45F
#WHITE SWAN 5E  N/A         59  47  64  SW3     29.49F
#WILEY CITY 3W  N/A         58  44  60  W16G25  29.47F
$$

WAZ028-281910-
LOWER COLUMBIA BASIN...WASHINGTON

CITY            SKY/WX      TMP DP  RH  WIND    PRES   REMARKS
PASCO           CLOUDY      59  44  57  E10     29.54F
6HR MIN TEMP:   54; 6HR MAX TEMP:   60;

PROSSER AWOS    N/A         59  43  55  S18     29.57F
RICHLAND AWOS   CLOUDY      61  41  48  SW25G45 29.50F
#BASIN CITY 5SW N/A         59  47  64  W10G26  29.51F
#BENTON CITY    N/A         57  45  64  SW23G40 29.44S
#CONNELL 5N     N/A         56  48  74  SW6     29.50F
#CONNELL 5NW    N/A         55  47  74  SW15    29.45F
#ELTOPIA 6NW    N/A         58  46  64  SW5     28.52S
#KAHLOTUS       N/A         56  44  64  W15     29.52F
#KENNEWICK      N/A         43  43  100 CALM    27.09F
#KENNEWICK 3S   N/A         57  45  64  S10G24  29.49F
#PATERSON       N/A         55  48  77  CALM    29.55F
#PROSSER        N/A         56  43  62  S18G32  29.51F
#SAGEMOOR 2W    N/A         61  44  53  S13G26  29.37R
#TOUCHET 2S     N/A         61  43  51  SW3     29.55F
#WEST PASCO     N/A         61  45  56  NW5     29.51F
$$

WAZ029-281910-
FOOTHILLS OF THE BLUES...WASHINGTON

CITY            SKY/WX      TMP DP  RH  WIND    PRES   REMARKS
WALLA WALLA AP  CLOUDY      60  38  44  SW17    29.58F
6HR MIN TEMP:   58; 6HR MAX TEMP:   61;

#COLLEGE PLACE  N/A         61  36  39  S9      29.59F
#DAYTON SCHOOL  N/A         57  36  45  SW6     29.60F
#LOWDEN 2SE     N/A         63  40  43  SW20G30 29.53F
#PLEASANT VIEW 1N/A         54  43  66  S18G30  29.56F
#PRESCOTT       N/A         59  42  53  S1      29.54F
#SUDBURY        N/A         62  N/A N/A CALM    N/A
#WHITMAN COLLEGEN/A         62  40  44  S14G24  29.60F
#WAITSBURG 5S   N/A         56  41  57  S13     29.65F
#WAITSBURG 8N   N/A         55  27  34  S17     29.53S
#WALLA WALLA 5E N/A         61  39  44  S6      N/A
#WALLA WALLA U  N/A         63  41  44  S7      29.56F
$$

WAZ030-281910-
BLUE MOUNTAINS...WASHINGTON

CITY            SKY/WX      TMP DP  RH  WIND    PRES   REMARKS
$$

ORZ009-041-WAZ024-281910-
COLUMBIA RIVER GORGE

CITY            SKY/WX      TMP DP  RH  WIND    PRES   REMARKS
HOOD RIVER AP   MOCLDY      52  52  100 CALM    29.59F
THE DALLES AP   CLOUDY      51  50  96  CALM    29.59F FOG
6HR MIN TEMP:   50; 6HR MAX TEMP:   51; 6HR PCP:  0.03;

#ARLINGTON AIRPON/A         52  49  89  W12     29.98S
#CELILO DOT     N/A         51  49  93  S15     N/A
#MARYHILL 2W    N/A         53  49  86  W3      N/A
#MOSIER 1S      N/A         52  50  93  SW6     29.62F
#MURDOCK        N/A         52  52  100 E2      29.60F
#RUFUS DOT      N/A         51  49  93  S18G30  N/A

$$

ORZ510-281910-
NORTH CENTRAL OREGON

CITY            SKY/WX      TMP DP  RH  WIND    PRES   REMARKS
#CHENOWITH 1W   N/A         49  48  96  NE6     N/A
#COW CYN RST AREN/A         48  37  65  S18G30  N/A    WCI 41
#DUFUR 9E       N/A         52  41  66  SW24G35 29.62F
#GRASS VALLEY   N/A         50  41  71  S7      N/A
#GRASS VALLEY 1SN/A         51  42  71  SW10    29.63F
#KENT DOT       N/A         50  32  50  S24     N/A
#MAUPIN SCHOOL  N/A         57  44  62  CALM    28.51F
#MORO SCHOOL    N/A         52  46  80  SW6     29.63F
#SHANIKO 5WSW   N/A         46  31  56  S25     N/A    WCI 37
#SHANIKO 4NW    N/A         46  36  68  S17G38  29.63F WCI 39
#TYGH VALLEY 2NEN/A         53  45  74  NW2     29.60F
#WAPANITIA AIRPON/A         54  41  61  W10     29.62F
#WASCO DOT      N/A         54  42  64  SW7     N/A
#WASCO 5NE      N/A         52  45  77  S2      29.58F
$$

ORZ511-281910-
CENTRAL OREGON

CITY            SKY/WX      TMP DP  RH  WIND    PRES   REMARKS
BEND AIRPORT    CLOUDY      45  36  70  S18G28  29.73F WCI 37
MADRAS AIRPORT  CLOUDY      50  39  66  S20G26  29.70F
PRINEVILLE AP   CLOUDY      46  37  71  CALM    29.74F
REDMOND AIRPORT CLOUDY      45  37  73  S18G32  29.72F WCI 37
6HR MIN TEMP:   45; 6HR MAX TEMP:   51; 6HR PCP:  0.02;

#BEND 1SW       N/A         39  37  92  SW8     N/A
#BEND-AWBREY    N/A         41  38  89  N12G33  29.66F WCI 34
#BEND-KIM LN    N/A         42  38  86  SW13    29.67F WCI 35
#CROOKED RVR RANN/A         46  40  79  SW2     29.67F
#CULVER         N/A         47  39  74  SE13    29.65S WCI 41
#LAKE BILLY CHINN/A         48  28  46  SE8     29.75F
#POWELL BUTTE 3EN/A         46  38  73  SE3     N/A
#POWELL BUTTE   N/A         45  38  76  SW8     29.38F
#PRINEVILLE 3N  N/A         45  40  82  N3      29.66F
#WARM SPRINGS   N/A         54  41  61  E6      29.65F


ORZ509-281910-
EAST SLOPES OF OREGON CASCADES

CITY            SKY/WX      TMP DP  RH  WIND    PRES   REMARKS
#BLUE BOX PASS  N/A         40  -9  12  CALM    N/A
#BLACK BUTTE RNCN/A         42  41  96  CALM    29.67F
#CAMP SHERMAN   N/A         41  39  93  CALM    29.69S
#LA PINE DOT    N/A         36  35  96  CALM    N/A
#LA PINE 4NW    N/A         36  33  89  CALM    29.82F
#LAVA BUTTE DOT N/A         36  34  92  SE3     N/A
#MT BACHELOR-MIDN/A         29  28  96  SE31G62 N/A    WCI 13
#SISTERS AIRPOR N/A         46  43  89  CALM    29.91S
#SISTERS ODOT   N/A         46  N/A N/A CALM    N/A
#SISTERS 3N     N/A         45  37  73  CALM    29.75S
#SUNRIVER       N/A         38  36  92  S2      29.66F
#SUNRIVER AP    N/A         52  51  96  CALM    29.60S
#SUTTLE LK DOT  N/A         36  36  100 W25G44  N/A    WCI 24
#TUMALO 3W      N/A         42  36  79  SE7     29.56F
#WANOGA BUTTE D N/A         32  32  100 W13     N/A    WCI 22

$$

ORZ044-281910-
LOWER COLUMBIA BASIN...OREGON

CITY            SKY/WX      TMP DP  RH  WIND    PRES   REMARKS
HERMISTON       CLOUDY      56  47  72  N3      29.58F
6HR MIN TEMP:   51; 6HR MAX TEMP:   56; 6HR PCP:  TRACE;

#BOARDMAN 3W    N/A         52  51  96  NE3     29.26F
#BOARDMAN 8SW   N/A         56  47  72  N1      29.56F
#ECHO 8SW       N/A         61  42  50  SW15G24 29.53F
#IONE SCHOOL    N/A         60  39  46  S17G31  29.59F
#IRRIGON 4NW    N/A         53  50  89  CALM    N/A
#UMATILLA SCHOOLN/A         52  51  96  CALM    29.59F
#UMATILLA       N/A         55  47  74  CALM    29.56F
$$

ORZ507-281910-
NORTHERN FOOTHILLS OF THE BLUES

CITY            SKY/WX      TMP DP  RH  WIND    PRES   REMARKS
PENDLETON AIRPT CLOUDY      57  38  49  S26G38  29.60F
6HR MIN TEMP:   54; 6HR MAX TEMP:   59; 6HR PCP:  0.01;

#ADAMS 3WNW     N/A         57  41  55  SW15    29.58S
#ATHENA         N/A         57  41  55  SW7     29.59S
#CAYUSE         N/A         59  40  49  S24G37  29.54F
#HELIX SCHOOL   N/A         56  40  55  S23G31  29.56F
#HELIX 3N       N/A         55  40  57  N30G44  29.58F
#HELIX 6SW      N/A         57  41  55  S29G40  29.60
#HOLDMAN 5SE    N/A         58  43  57  S9      29.62S
#HOLDMAN 6E     N/A         56  41  57  N21     29.39F
#M-F FERNDALE   N/A         62  38  41  CALM    29.59F
#M-F GROVE ELEM N/A         61  37  41  CALM    29.58F
#PENDLETON DNTN N/A         60  34  37  W17G26  28.40F
#PDT AQUATIC CTRN/A         60  36  41  S16G28  29.58F
#PENDLETON 5NE  N/A         59  41  51  SW9G24  29.57F
#PDT SUNRIDGE   N/A         60  40  47  SW14G24 29.61S
#PENDLETON 7NW  N/A         58  42  55  S20G31  26.74F
#TUTUILLA       N/A         58  39  49  S15G24  29.58F
#UMAPINE 2E     N/A         63  42  46  S5      29.55F
#WESTON SCHOOL  N/A         58  34  40  SW15G29 29.57F

$$

ORZ508-281910-
SOUTHERN FOOTHILLS OF THE BLUES

CITY            SKY/WX      TMP DP  RH  WIND    PRES   REMARKS
LEXINGTON       PTCLDY      59  37  44  S28G35  29.61F
#AJAX           N/A         54  33  45  S22G38  29.56F
#CONDON SCHOOL  N/A         51  40  66  CALM    29.62F
#CONDON 5W      N/A         49  36  61  S20G32  29.61F WCI 42
#FOSSIL SCHOOL  N/A         51  38  61  S7      29.65F
#HEPPNER EOC    N/A         55  38  53  S7      29.54F
#HEPPNER 4NE    N/A         53  38  57  E3      29.57F
#LEXINGTON 2SE  N/A         60  39  46  S16G30  29.57F
#MIKKALO        N/A         57  37  47  S13G26  29.59F
#OLEX 4N        N/A         58  43  57  SW12    29.59F
#RUGGS 5NE      N/A         53  35  50  S8      29.75F
#RUGGS 2SW      N/A         53  37  54  SW17G26 29.61F

$$

ORZ502-503-281910-
BLUE MOUNTAINS

CITY            SKY/WX      TMP DP  RH  WIND    PRES   REMARKS
MEACHAM         CLOUDY      48  35  60  VRB6    29.67S
6HR MIN TEMP:   47; 6HR MAX TEMP:   51;

#BATTLE MTN DOT N/A         42  38  86  S15     N/A    WCI 34
#HARDMAN 10S    N/A         43  36  76  S9      29.77F
#HEPPNER 15SE   N/A         46  36  68  SE3     29.55F
#LADD CYN SMT   N/A         45  35  68  SE13    N/A    WCI 39
#LADD CREEK ODOTN/A         47  38  71  S7      N/A
#LONG CREEK HS  N/A         43  41  93  S20G35  29.67F WCI 34
#N POWDER DOT   N/A         48  38  68  SE7     N/A
#PIKES PEAK     N/A         52  33  48  SW23G37 27.99S
#TOLLGATE       N/A         40  36  85  SW3     29.65S
#TROY SCHOOL    N/A         49  47  93  CALM    29.49F
#UKIAH          N/A         46  38  73  S5      29.71F
#WESTON 4E      N/A         51  37  59  SE15G25 29.52F
$$

ORZ505-281910-
JOHN DAY BASIN

CITY            SKY/WX      TMP DP  RH  WIND    PRES   REMARKS
JOHN DAY        LGT DRIZZLE 42  37  82  S15     29.80S WCI 34
#DAYVILLE SCHOOLN/A         48  37  65  S3      29.76S
#MONUMENT HS    N/A         52  37  56  S6      29.73F
#MT. VERNON 5SE N/A         40  36  85  E7      29.73F
#WINLOCK        N/A         47  40  76  N5      29.80F
$$

ORZ506-281910-
OCHOCO AND JOHN DAY HIGHLANDS

CITY            SKY/WX      TMP DP  RH  WIND    PRES   REMARKS
#BUCK CREEK DOT N/A         48  31  51  CALM    N/A
#HORSE RIDGE DO N/A         39  35  85  S15G28  N/A    WCI 31
#KEYES SMT DOT  N/A         41  34  76  S7      N/A
#PINE MTN OBS   N/A         30  29  96  S25G44  N/A    WCI 16
#PRAIRIE CITY   N/A         41  35  79  E1      29.87R
#SENECA         N/A         39  N/A N/A NW2     N/A
#SENECA 9NW     N/A         35  34  96  CALM    29.82F
$$

ORZ049-281910-
GRANDE RONDE VALLEY

CITY            SKY/WX      TMP DP  RH  WIND    PRES   REMARKS
LA GRANDE       CLOUDY      50  36  58  S8      29.70S
#COVE           N/A         48  42  80  E7      30.03S
#COVE SCHOOL    N/A         48  41  77  E7      29.70F
#COVE 6NW       N/A         47  40  76  CALM    29.72S
#ELGIN 3N       N/A         52  36  54  S16     29.43R
#ELGIN 1E       N/A         51  41  68  W6      N/A
#IMBLER SCHOOL  N/A         48  41  77  S6      29.67S
#ISLAND CITY 4N N/A         52  51  96  S2      29.58F
#LADD CYN DOT   N/A         50  37  61  S15     N/A
#UNION 1S       N/A         52  39  61  E13     29.59F
$$

ORZ050-281910-
WALLOWA COUNTY

CITY            SKY/WX      TMP DP  RH  WIND    PRES   REMARKS
JOSEPH AIRPORT  RAIN        46  36  68  W3G24   29.69S
#ENTERPRISE AP  N/A         48  33  56  SE10G24 29.65F
#ENTERPRISE HS  N/A         51  38  61  S7      29.72S
#IMNAHA SCHOOL  N/A         57  39  51  S17G30  29.69S
#IMNAHA 10S     N/A         52  36  54  S14G33  29.72R
#JOSEPH 3N      N/A         48  38  68  S14     29.73F WCI 42
#JOSEPH 3W      N/A         43  35  73  SW5     29.53F
#LOSTINE        N/A         48  38  68  SW7     29.43S
#MT HOWARD 8000 N/A         30  28  92  S22G48  29.64F WCI 17
#PROMISE 1S     N/A         48  39  71  E9      29.73F
#SHEEP RDG 7000 N/A         32  29  89  CALM    29.59S
#WALLOWA SCHOOL N/A         52  38  59  SW3     30.55R



$$



USA.gov is the U.S. government's official web portal to all federal, state and local government web resources and services.